カタログに戻る

COSMOS 970 DEB

運用中LEO
NORAD 15559·DEBRIS·🇷🇺 Russia

打ち上げ Dec 21, 1977 から Baikonur Cosmodrome

Loading…

次のパス (今後24時間)

TLE

最新Source: Space-Track

元期: Sep 14, 2026, 14:03 UTC

1 15559U 77121BM  26257.58607887  .00000023  00000-0  12083-3 0  9996
2 15559  65.5818   3.1937 0126070 343.6029  27.5653 13.65345999 72704

AllMySatでCOSMOS 970 DEBをリアルタイム追跡

Download on the App Store